Tracking 19644 objects as of 25-Apr-2019
HD Live streaming from Space Station
objects crossing your sky now

THORAD AGENA D DEB

Track THORAD AGENA D DEB now!
10-day predictions


NORAD ID: 4987
Int'l Code: 1970-025HH
Perigee: 1,054.9 km
Apogee: 1,114.1 km
Inclination: 99.4 °
Period: 106.8 minutes
Semi major axis: 7455 km
RCS: 0.0566 m2 (small)
Launch date: April 8, 1970
Source: United States (US)
Launch site: AIR FORCE WESTERN TEST RANGE (AFWTR)

Note: This is SATELLITE DEBRIS
aabbcc
Your satellite tracking list
Your tracking list is empty




NASA's NSSDC Master Catalog

Two Line Element Set (TLE):
1  4987U 70025HH  19115.07015043 -.00000010  00000-0  49245-4 0  9999
2  4987  99.3917 135.0096 0039677 150.4194 275.9810 13.48610649411547
Source of the keplerian elements: AFSPC